[[{"header":{"parameterUnit":"m.s-1","parameterCategory":1,"la1":30.2991,"la2":30.254,"lo1":-89.0895,"lo2":-89.0444,"dy":0.0017,"dx":0.0017,"nx":28,"ny":28,"refTime":"2024-12-10T03:00:00:Z","depth":0,"parameterNumber":2,"parameterNumberName":"U-component_of_WINDS"},"data":[0,0,0,0,0,0,0,0,0,0,0,0,0,0,0,0,0,0,0,0,0,0,0,0,0,0,0,0,0,0,0,0,0,0,0,0,0,0,0,0,0,0,0,0,0,0,0,0,0,0,0,0,0,0,0,0,0,0,4.46,4.4601,0,4.4714,4.4715,4.4716,4.47,4.4698,4.4696,4.4695,4.4811,4.4816,4.4821,0,0,0,0,0,0,0,0,0,0,0,0,0,4.4371,4.4375,4.46,4.4601,4.4603,4.4713,4.4715,4.4717,4.4701,4.4698,4.4696,4.4694,4.481,4.4815,4.4821,0,0,0,0,0,0,0,0,0,0,0,0,0,4.4476,4.4377,4.46,4.4608,4.461,4.4713,4.4715,4.4717,4.4701,4.4698,4.4695,4.4693,4.4808,4.4815,4.4822,4.4924,0,0,4.4844,4.4847,0,0,0,0,0,0,0,0,4.447,4.4485,4.4605,4.4608,4.461,4.469,4.4677,4.4786,4.4702,4.4666,4.4695,4.4691,4.4773,4.4783,4.4811,4.4929,4.4934,4.4845,4.4849,4.4852,4.4855,0,0,0,0,0,0,0,4.4463,4.448,4.4645,4.4607,4.461,4.4607,4.4619,4.4698,4.4734,4.4669,4.4668,4.4682,4.4774,4.4804,4.4813,4.4936,4.4845,4.4851,4.4856,4.4859,4.5148,4.5151,0,0,0,0,0,0,4.4453,4.4474,4.4641,4.4648,4.4532,4.4613,4.4627,4.4667,4.4733,4.4741,4.4684,4.4681,4.4793,4.4805,4.4817,4.4943,4.4852,4.4859,4.4863,4.5145,4.5149,4.5152,0,0,0,0,0,0,4.4448,4.4468,4.4637,4.4561,4.4582,4.462,4.4666,4.4671,4.4701,4.4745,4.4751,4.4708,4.4791,4.4807,4.4898,4.4947,4.4863,4.4869,4.5141,4.5146,4.515,4.5195,0,0,0,0,0,0,4.4442,4.4467,4.4505,4.4562,4.4586,4.4715,4.4669,4.4675,4.4713,4.471,4.4769,4.4776,4.479,4.4888,4.4906,4.4956,4.4875,4.5136,4.5143,4.5149,4.5189,4.5201,4.521,0,0,0,0,0,4.4434,4.4512,4.4507,4.4527,4.4635,4.4718,4.4732,4.4746,4.4717,4.4757,4.4786,4.4774,4.4939,4.4897,4.4917,4.497,4.5133,4.5141,4.5148,4.5184,4.5198,4.521,0,0,0,0,0,0,4.446,4.452,4.4515,4.4614,4.4661,4.4715,4.4765,4.476,4.4817,4.4811,4.4827,4.484,4.4933,4.4961,4.4913,4.5074,4.5032,4.5044,4.5053,4.5066,4.5077,4.5069,4.4881,0,0,0,0,0,4.4477,4.4539,4.4588,4.4671,4.4695,4.4727,4.4763,4.4771,4.482,4.484,4.4875,4.4924,4.4987,4.5028,4.5088,4.5193,4.5207,4.524,4.525,4.5259,4.5269,4.5329,4.5345,4.5177,4.5176,4.5176,0,0,4.4513,4.4554,4.4592,4.4678,4.4715,4.478,4.4743,4.4813,4.4862,4.485,4.4939,4.4967,4.5023,4.5122,4.5168,4.5148,4.5319,4.5268,4.5275,4.5281,4.5339,4.5355,4.5369,4.5182,4.5181,4.518,0,0,4.4613,4.4649,4.4723,4.4762,4.482,4.484,4.4858,4.4914,4.4933,4.5022,4.5016,4.5075,4.5182,4.5223,4.5258,4.5376,4.5368,4.5396,4.5451,4.551,4.5523,4.5535,4.5579,4.5595,4.5405,4.5406,4.5406,0,4.465,4.4748,4.4762,4.4834,4.4872,4.4866,4.4943,4.498,4.5054,4.5081,4.5058,4.5195,4.5232,4.5342,4.5371,4.5399,4.5422,4.5389,4.552,4.5532,4.5544,4.5586,4.5602,4.5409,4.5408,4.5408,4.5408,0,4.4793,4.486,4.4914,4.4987,4.5032,4.5105,4.5132,4.5175,4.518,4.5203,4.5296,4.5341,4.5411,4.5438,4.5442,4.555,4.5536,4.5516,4.5475,4.5563,4.5603,4.5619,4.5413,4.5412,4.5411,4.541,0,0,4.491,4.4992,4.5012,4.5046,4.511,4.5164,4.5238,4.5307,4.5346,4.5398,4.5462,4.5554,4.5538,4.5577,4.5586,4.5638,4.5732,4.5612,4.5614,4.5635,4.5856,4.5871,4.5889,4.5727,4.573,4.5733,4.5852,0,4.5017,4.5148,4.5165,4.5282,4.5346,4.5342,4.5407,4.5455,4.5479,4.5538,4.5565,4.5632,4.5604,4.5628,4.5679,4.571,4.5777,4.5701,4.5788,4.5791,4.5775,4.591,4.5926,4.6036,4.5867,4.587,4.5872,0,4.5159,4.5217,4.534,4.5399,4.5426,4.5484,4.5551,4.5607,4.5661,4.5676,4.5722,4.5725,4.5803,4.5759,4.5868,4.5816,4.5853,4.5874,4.5879,4.5888,4.5837,4.5924,4.6071,4.6088,4.5897,4.5895,4.5893,0,4.5235,4.5343,4.5432,4.5461,4.5531,4.5572,4.5603,4.5655,4.5697,4.5755,4.5783,4.5849,4.5886,4.5938,4.596,4.5925,4.607,4.6026,4.6085,4.6085,4.6116,4.6114,4.6272,4.6138,4.6137,4.6137,4.6137,0,4.5353,4.543,4.5467,4.5522,4.5608,4.5627,4.5712,4.5741,4.5788,4.5849,4.585,4.5908,4.5933,4.5995,4.6013,4.6102,4.6118,4.6133,4.6137,4.6134,4.6132,4.6158,4.6152,4.6141,4.614,4.614,4.6139,0,4.5453,4.5481,4.5577,4.5636,4.5653,4.5714,4.5765,4.5819,4.5844,4.5922,4.5941,4.598,4.6054,4.6081,4.617,4.6182,4.6286,4.6283,4.6268,4.6269,4.6328,4.6322,4.6509,4.6535,4.6382,4.6384,4.6385,0,4.5527,4.5586,4.5651,4.5693,4.5726,4.5792,4.5835,4.5857,4.5902,4.597,4.6016,4.609,4.6149,4.6267,4.6304,4.6373,4.6373,4.6434,4.6383,4.6379,4.6376,4.6373,4.638,4.6443,4.6445,4.6446,4.6447,0,4.5656,4.5668,4.573,4.5798,4.585,4.5904,4.5957,4.5991,4.6021,4.6072,4.6147,4.6194,4.6286,4.636,4.6431,4.6464,4.6462,4.6463,4.648,4.6478,4.6468,4.6476,4.6295,4.6458,4.6457,4.6456,4.6456,4.6455,4.5746,4.5799,4.5855,4.5925,4.5967,4.6017,4.6072,4.6104,4.6168,4.6245,4.6254,4.6336,4.6391,4.6487,4.6523,4.6589,4.6572,4.6597,4.6604,4.661,4.6615,4.6457,4.6601,4.6601,4.6601,4.6601,4.66,0,4.5877,4.5913,4.5977,4.6052,4.6108,4.6101,4.616,4.6207,4.6279,4.6332,4.6391,4.6479,4.6552,4.6595,4.6668,4.6712,4.6713,4.673,4.6728,4.6736,4.6625,4.6603,4.6729,4.6729,4.6729,4.6729,4.6729,4.6729,4.5952,4.6042,4.6061,4.6174,4.6209,4.629,4.6324,4.6371,4.6413,4.6512,4.6572,4.66,4.665,4.6727,4.6794,4.6805,4.6832,4.6852,4.6862,4.6757,4.6744,4.6731,4.6711,4.6857,4.6857,4.6968,4.6969,4.697]},{"header":{"parameterUnit":"m.s-1","parameterCategory":1,"la1":30.2991,"la2":30.254,"lo1":-89.0895,"lo2":-89.0444,"dy":0.0017,"dx":0.0017,"nx":28,"ny":28,"refTime":"2024-12-10T03:00:00:Z","depth":0,"parameterNumber":3,"parameterNumberName":"V-component_of_WINDS"},"data":[0,0,0,0,0,0,0,0,0,0,0,0,0,0,0,0,0,0,0,0,0,0,0,0,0,0,0,0,0,0,0,0,0,0,0,0,0,0,0,0,0,0,0,0,0,0,0,0,0,0,0,0,0,0,0,0,0,0,-8.0279,-8.0279,0,-8.0319,-8.0319,-8.032,-8.0256,-8.0254,-8.0252,-8.025,-8.0286,-8.0289,-8.0292,0,0,0,0,0,0,0,0,0,0,0,0,0,-8.0142,-8.0145,-8.0279,-8.0279,-8.028,-8.0319,-8.0319,-8.032,-8.0257,-8.0254,-8.0251,-8.0249,-8.0285,-8.0288,-8.0292,0,0,0,0,0,0,0,0,0,0,0,0,0,-8.0193,-8.0146,-8.0279,-8.0253,-8.0251,-8.0319,-8.0319,-8.032,-8.0257,-8.0254,-8.0251,-8.0247,-8.0284,-8.0288,-8.0292,-8.0386,0,0,-8.0306,-8.0308,0,0,0,0,0,0,0,0,-8.0191,-8.0198,-8.0256,-8.0255,-8.0253,-8.0279,-8.0284,-8.0342,-8.0258,-8.0255,-8.025,-8.0246,-8.0286,-8.029,-8.0305,-8.0387,-8.0389,-8.0307,-8.0309,-8.0311,-8.0313,0,0,0,0,0,0,0,-8.0187,-8.0196,-8.0294,-8.0257,-8.0255,-8.0238,-8.0241,-8.0295,-8.0288,-8.0255,-8.025,-8.0256,-8.0284,-8.03,-8.0305,-8.0389,-8.0306,-8.031,-8.0313,-8.0315,-8.055,-8.0554,0,0,0,0,0,0,-8.0187,-8.0194,-8.0293,-8.0296,-8.0213,-8.0243,-8.0247,-8.0274,-8.0287,-8.0286,-8.0259,-8.0253,-8.0294,-8.03,-8.0306,-8.0415,-8.0311,-8.0315,-8.0318,-8.0547,-8.0551,-8.0555,0,0,0,0,0,0,-8.0185,-8.0197,-8.0291,-8.0244,-8.0254,-8.0249,-8.0279,-8.0277,-8.0293,-8.0291,-8.0288,-8.0277,-8.0292,-8.03,-8.0367,-8.0416,-8.0317,-8.0322,-8.0543,-8.0548,-8.0553,-8.0636,0,0,0,0,0,0,-8.0181,-8.0196,-8.0233,-8.0245,-8.0257,-8.0353,-8.0283,-8.028,-8.0301,-8.0294,-8.0307,-8.0306,-8.029,-8.036,-8.0371,-8.042,-8.0325,-8.0538,-8.0545,-8.0551,-8.0628,-8.0643,-8.0656,0,0,0,0,0,-8.0176,-8.0253,-8.0235,-8.0247,-8.0303,-8.0356,-8.0363,-8.0345,-8.0305,-8.0341,-8.034,-8.0305,-8.0409,-8.0368,-8.0379,-8.0431,-8.0535,-8.0543,-8.0551,-8.0622,-8.064,-8.0655,0,0,0,0,0,0,-8.0244,-8.0254,-8.0234,-8.0318,-8.0337,-8.0345,-8.039,-8.0364,-8.0393,-8.0385,-8.036,-8.0363,-8.0435,-8.044,-8.0393,-8.0521,-8.0465,-8.0476,-8.0516,-8.0533,-8.0546,-8.0543,-8.0329,0,0,0,0,0,-8.027,-8.0314,-8.0319,-8.0392,-8.0403,-8.0395,-8.0418,-8.0402,-8.042,-8.0427,-8.0431,-8.0448,-8.0485,-8.0509,-8.0543,-8.063,-8.0631,-8.067,-8.0684,-8.0695,-8.0704,-8.075,-8.0767,-8.0581,-8.0581,-8.0581,0,0,-8.0321,-8.0332,-8.0361,-8.0406,-8.0419,-8.0464,-8.0402,-8.0452,-8.0484,-8.0434,-8.0498,-8.0502,-8.0519,-8.0597,-8.0631,-8.0602,-8.0756,-8.0706,-8.0715,-8.0717,-8.076,-8.0777,-8.0793,-8.0587,-8.0586,-8.0585,0,0,-8.0438,-8.0451,-8.0513,-8.0528,-8.055,-8.0544,-8.0559,-8.0572,-8.0573,-8.0637,-8.0601,-8.0638,-8.0702,-8.0716,-8.0731,-8.0855,-8.0824,-8.0867,-8.0937,-8.0982,-8.0996,-8.1009,-8.1052,-8.1068,-8.0876,-8.0876,-8.0876,0,-8.0498,-8.0566,-8.0548,-8.0601,-8.0621,-8.0581,-8.0643,-8.0657,-8.0688,-8.0702,-8.0671,-8.075,-8.0759,-8.0839,-8.087,-8.0884,-8.0899,-8.0864,-8.0996,-8.1009,-8.102,-8.1061,-8.1077,-8.0881,-8.0881,-8.088,-8.088,0,-8.0639,-8.0687,-8.0734,-8.0767,-8.0793,-8.085,-8.0839,-8.0867,-8.085,-8.0848,-8.0913,-8.0923,-8.0958,-8.0976,-8.0959,-8.1053,-8.1035,-8.1001,-8.0943,-8.1044,-8.1081,-8.1097,-8.0888,-8.0886,-8.0885,-8.0884,0,0,-8.0798,-8.0822,-8.0839,-8.0853,-8.0875,-8.091,-8.0965,-8.1001,-8.1025,-8.1048,-8.1092,-8.1148,-8.1117,-8.1134,-8.1119,-8.1158,-8.1254,-8.1118,-8.1118,-8.1142,-8.1358,-8.1383,-8.1401,-8.1235,-8.1238,-8.124,-8.1356,0,-8.0913,-8.101,-8.0996,-8.1089,-8.1131,-8.1094,-8.1142,-8.1159,-8.1159,-8.1194,-8.1192,-8.1232,-8.1188,-8.1198,-8.1236,-8.1235,-8.1297,-8.1226,-8.1274,-8.1276,-8.1269,-8.1421,-8.1447,-8.1556,-8.1371,-8.1373,-8.1375,0,-8.106,-8.1091,-8.1188,-8.1203,-8.1221,-8.1264,-8.1296,-8.1331,-8.1349,-8.1346,-8.1367,-8.1344,-8.1398,-8.1341,-8.1414,-8.1366,-8.1385,-8.1388,-8.1391,-8.1393,-8.133,-8.1425,-8.159,-8.1606,-8.1398,-8.1396,-8.1395,0,-8.1165,-8.123,-8.1297,-8.131,-8.133,-8.1361,-8.1371,-8.1386,-8.1409,-8.1436,-8.145,-8.1483,-8.1501,-8.1526,-8.1512,-8.1473,-8.1587,-8.153,-8.1584,-8.1585,-8.1608,-8.1606,-8.1776,-8.1623,-8.1623,-8.1623,-8.1623,0,-8.1294,-8.1355,-8.1344,-8.1385,-8.1452,-8.1435,-8.1501,-8.1505,-8.152,-8.156,-8.1529,-8.1567,-8.1547,-8.1583,-8.1573,-8.1634,-8.1642,-8.164,-8.1636,-8.1642,-8.1642,-8.1652,-8.1643,-8.1627,-8.1626,-8.1625,-8.1625,0,-8.1422,-8.1417,-8.1487,-8.1501,-8.1506,-8.1554,-8.1565,-8.1602,-8.16,-8.1651,-8.1662,-8.1657,-8.1698,-8.1688,-8.1732,-8.1725,-8.1801,-8.1789,-8.1795,-8.1792,-8.1846,-8.1841,-8.2027,-8.205,-8.1884,-8.1886,-8.1887,0,-8.1504,-8.155,-8.1569,-8.1595,-8.1607,-8.1648,-8.1672,-8.1657,-8.1682,-8.1708,-8.1742,-8.1781,-8.181,-8.1877,-8.1877,-8.191,-8.1897,-8.196,-8.1901,-8.1906,-8.1896,-8.1893,-8.1897,-8.1971,-8.1973,-8.1974,-8.1976,0,-8.165,-8.1645,-8.1681,-8.1717,-8.1747,-8.1774,-8.1797,-8.1819,-8.1806,-8.1836,-8.1878,-8.1902,-8.1948,-8.1986,-8.2017,-8.2024,-8.1997,-8.1995,-8.2009,-8.2014,-8.2015,-8.2014,-8.1825,-8.199,-8.1988,-8.1987,-8.1987,-8.1986,-8.1756,-8.1795,-8.1815,-8.1856,-8.1873,-8.1896,-8.1932,-8.1935,-8.1971,-8.2008,-8.1997,-8.2045,-8.2062,-8.2101,-8.2113,-8.2149,-8.2125,-8.2145,-8.215,-8.2155,-8.2161,-8.2012,-8.2155,-8.2154,-8.2154,-8.2154,-8.2153,0,-8.1899,-8.191,-8.1949,-8.1984,-8.2016,-8.1991,-8.2016,-8.2044,-8.2087,-8.2106,-8.2137,-8.2185,-8.2222,-8.2226,-8.226,-8.2289,-8.2277,-8.2298,-8.2295,-8.2297,-8.2182,-8.2166,-8.2307,-8.2307,-8.2307,-8.2307,-8.2307,-8.2307,-8.1977,-8.2042,-8.204,-8.2113,-8.2123,-8.2171,-8.2188,-8.2208,-8.2224,-8.228,-8.2311,-8.2314,-8.2327,-8.2362,-8.2394,-8.2394,-8.2408,-8.2433,-8.2428,-8.232,-8.2305,-8.229,-8.2275,-8.2436,-8.2437,-8.2539,-8.254,-8.2541]}]]